• Join FlightAware (Why Join?)
  • Login
  • US Flag GB Flag 
09:54 EDT


 

Airport Tracker/Info


-or-


 

Live Flight TrackerFlight Track Log ✈ FFT403 ✈ 04-May-2013 ✈ KDEN - KLAX

Flight Track Log - Related Links

Times and Time Zones

All times are in EDT time to prevent confusion due to time zone crossing. See the FFT403 flight status page for this flight to view local times or setup timezone preferences in your user account.

Time Position Orientation Groundspeed Altitude Reporting Facility
EDT Latitude Longitude Course Direction KTS MPH feet Rate Location/Type
10:50 39.8406 -104.7367 241° Southwest 164 189 6,300  Level Denver Center
10:51 39.8281 -104.8064 257° West 200 230 7,600 1,920 Climbing Denver Center
10:52 39.7992 -104.9106 250° West 285 328 10,300 2,760 Climbing Denver Center
10:53 39.7731 -105.0100 251° West 292 336 13,400 3,000 Climbing Denver Center
10:54 39.7347 -105.1153 245° Southwest 294 338 16,500 2,160 Climbing Denver Center
10:55 39.6964 -105.2214 245° Southwest 323 372 17,900 1,740 Climbing Denver Center
10:56 39.6321 -105.3694 241° Southwest  Level FlightAware Approximate
10:56 39.6542 -105.3392 245° Southwest 359 413 20,200  Level Denver Center
10:57 39.6083 -105.4664 245° Southwest 362 417 22,500 1,920 Climbing Denver Center
10:58 39.5658 -105.5786 244° Southwest 369 425 24,200 1,740 Climbing Denver Center
10:59 39.5269 -105.7083 249° West 379 436 26,200 2,040 Climbing Denver Center
11:00 39.4853 -105.8606 251° West 379 436 28,500 1,980 Climbing Denver Center
11:01 39.4503 -105.9897 251° West 377 434 30,300 1,620 Climbing Denver Center
11:02 39.4125 -106.1194 249° West 382 440 31,900 1,440 Climbing Denver Center
11:03 39.3772 -106.2489 251° West 383 441 33,300 1,140 Climbing Denver Center
11:04 39.3497 -106.3486 250° West 374 430 34,300 1,200 Climbing Denver Center
11:05 39.3028 -106.5103 249° West 374 430 35,800 780 Climbing Denver Center
11:07 39.2553 -106.6744 250° West 381 438 36,200 360 Climbing Denver Center
11:08 39.2022 -106.7869 239° Southwest 386 444 36,700 720 Climbing Denver Center
11:09 39.1228 -106.9114 231° Southwest 401 461 37,700 600 Climbing Denver Center
11:10 39.0558 -107.0169 231° Southwest 399 459 38,000 120 Climbing Denver Center
11:11 38.9786 -107.1386 231° Southwest 394 453 38,000  Level Denver Center
11:12 38.9119 -107.2433 231° Southwest 394 453 38,000  Level Denver Center
11:13 38.8464 -107.3450 230° Southwest 387 445 38,000  Level Denver Center
11:14 38.7706 -107.4656 231° Southwest 388 447 38,000  Level Denver Center
11:15 38.7050 -107.5667 230° Southwest 384 442 38,000  Level Denver Center
11:16 38.6286 -107.6836 230° Southwest 384 442 38,000  Level Denver Center
11:17 38.5656 -107.7839 231° Southwest 379 436 38,000  Level Denver Center
11:18 38.4897 -107.9008 230° Southwest 382 440 38,000  Level Denver Center
11:19 38.4261 -107.9975 230° Southwest 374 430 38,000  Level Denver Center
11:20 38.3506 -108.1139 230° Southwest 379 436 38,000  Level Denver Center
11:21 38.2875 -108.2094 230° Southwest 372 428 38,000  Level Denver Center
11:22 38.2236 -108.3075 230° Southwest 373 429 38,000  Level Denver Center
11:23 38.1481 -108.4203 230° Southwest 375 432 38,000  Level Denver Center
11:24 38.0842 -108.5186 230° Southwest 376 433 38,000  Level Denver Center
11:25 38.0122 -108.6239 229° Southwest 371 427 38,000  Level Denver Center
11:26 37.9372 -108.7350 229° Southwest 371 427 38,000  Level Denver Center
11:28 37.8731 -108.8344 231° Southwest 377 434 38,000  Level Denver Center
11:29 37.7914 -108.9658 232° Southwest 375 432 38,000  Level Denver Center
11:30 37.7447 -109.0764 242° Southwest 373 429 38,000  Level Denver Center
11:31 37.6872 -109.2025 240° Southwest 373 429 38,000  Level Denver Center
11:32 37.6394 -109.3117 241° Southwest 371 427 38,000  Level Denver Center
11:33 37.5822 -109.4392 241° Southwest 375 432 38,000  Level Denver Center
11:34 37.5342 -109.5475 241° Southwest 372 428 38,000  Level Denver Center
11:35 37.4850 -109.6556 240° Southwest 371 427 38,000  Level Denver Center
11:36 37.4289 -109.7831 241° Southwest 374 430 38,000  Level Denver Center
11:37 37.4103 -109.9031 259° West 366 421 38,000  Level Denver Center
11:38 37.3878 -110.0461 259° West 372 428 38,000  Level Denver Center
11:39 37.3683 -110.1669 259° West 371 427 38,000  Level Denver Center
11:40 37.3422 -110.2889 255° West 370 426 38,000  Level Denver Center
11:41 37.2875 -110.4003 238° Southwest 376 433 38,000  Level Denver Center
11:42 37.2208 -110.5344 238° Southwest 377 434 38,000  Level Denver Center
11:43 37.1656 -110.6442 238° Southwest 373 429 38,000  Level Denver Center
11:44 37.1092 -110.7542 237° Southwest 375 432 38,000  Level Denver Center
11:45 37.0519 -110.8644 237° Southwest 376 433 38,000  Level Denver Center
11:46 36.9961 -110.9736 237° Southwest 374 430 38,000  Level Denver Center
11:47 36.9397 -111.0847 238° Southwest 378 435 38,000  Level Denver Center
11:48 36.8839 -111.1944 238° Southwest 377 434 38,000  Level Denver Center
11:49 36.8300 -111.3031 238° Southwest 370 426 38,000  Level Denver Center
11:50 36.7714 -111.4414 242° Southwest 374 430 38,000  Level Denver Center
11:51 36.7208 -111.5578 242° Southwest 377 434 38,000  Level Denver Center
11:52 36.6697 -111.6736 241° Southwest 381 438 38,000  Level Denver Center
11:53 36.6189 -111.7903 242° Southwest 381 438 38,000  Level Denver Center
11:54 36.5681 -111.9078 242° Southwest 385 443 38,000  Level Los Angeles Center
11:55 36.5144 -112.0272 241° Southwest 391 450 38,000  Level Los Angeles Center
11:56 36.4622 -112.1442 241° Southwest 388 447 38,000  Level Los Angeles Center
11:57 36.4122 -112.2597 242° Southwest 382 440 38,000  Level Los Angeles Center
11:58 36.3494 -112.4008 241° Southwest 387 445 38,000  Level Los Angeles Center
11:59 36.2978 -112.5178 241° Southwest 387 445 38,000  Level Los Angeles Center
12:00 36.2456 -112.6344 241° Southwest 387 445 38,000  Level Los Angeles Center
12:02 36.1917 -112.7519 240° Southwest 391 450 38,000  Level Los Angeles Center
12:03 36.1386 -112.8711 241° Southwest 395 455 38,000  Level Los Angeles Center
12:04 36.0858 -112.9889 241° Southwest 392 451 38,000  Level Los Angeles Center
12:05 36.0328 -113.1064 241° Southwest 392 451 38,000  Level Los Angeles Center
12:06 35.9683 -113.2475 241° Southwest 393 452 38,000  Level Los Angeles Center
12:07 35.9219 -113.3514 241° Southwest 394 453 38,000  Level Los Angeles Center
12:08 35.8689 -113.4672 241° Southwest 392 451 38,000  Level Los Angeles Center
12:09 35.8097 -113.5961 241° Southwest 394 453 38,000  Level Los Angeles Center
12:10 35.7556 -113.7128 240° Southwest 392 451 38,000  Level Los Angeles Center
12:11 35.6975 -113.8389 240° Southwest 394 453 38,000  Level Los Angeles Center
12:12 35.6433 -113.9556 240° Southwest 395 455 38,000  Level Los Angeles Center
12:13 35.5897 -114.0714 240° Southwest 392 451 38,000  Level Los Angeles Center
12:14 35.5244 -114.2111 240° Southwest 395 455 38,000  Level Los Angeles Center
12:15 35.4833 -114.2978 240° Southwest 390 449 38,000  Level Los Angeles Center
12:16 35.4167 -114.4389 240° Southwest 394 453 38,000  Level Los Angeles Center
12:17 35.3617 -114.5561 240° Southwest 395 455 38,000  Level Los Angeles Center
12:18 35.3047 -114.6739 239° Southwest 399 459 38,000  Level Los Angeles Center
12:19 35.2383 -114.8142 240° Southwest 397 457 38,000  Level Los Angeles Center
12:20 35.1825 -114.9308 240° Southwest 396 456 38,000  Level Los Angeles Center
12:21 35.1275 -115.0469 240° Southwest 395 455 38,000  Level Los Angeles Center
12:22 35.0714 -115.1644 240° Southwest 397 457 38,000  Level Los Angeles Center
12:23 35.0131 -115.2850 239° Southwest 397 457 38,000  Level Los Angeles Center
12:24 34.9564 -115.4011 239° Southwest 398 458 38,000  Level Los Angeles Center
12:25 34.9022 -115.5131 239° Southwest 396 456 38,000  Level Los Angeles Center
12:26 34.8439 -115.6322 239° Southwest 397 457 38,000  Level Los Angeles Center
12:27 34.7881 -115.7467 239° Southwest 394 453 38,000  Level Los Angeles Center
12:28 34.7208 -115.8853 239° Southwest 395 455 38,000  Level Los Angeles Center
12:29 34.6642 -115.9986 239° Southwest 393 452 38,000 -180 Level Los Angeles Center
12:30 34.6072 -116.1142 239° Southwest 397 457 37,700 -660 Descending Los Angeles Center
12:31 34.5494 -116.2292 239° Southwest 399 459 36,700 -960 Descending Los Angeles Center
12:32 34.4911 -116.3467 239° Southwest 405 466 35,800 -960 Descending Los Angeles Center
12:34 34.4328 -116.4644 239° Southwest 406 467 34,800 -1,080 Descending Los Angeles Center
12:35 34.3611 -116.6064 239° Southwest 411 473 33,600 -1,080 Descending Los Angeles Center
12:36 34.3022 -116.7250 239° Southwest 411 473 32,600 -1,440 Descending Los Angeles Center
12:37 34.2403 -116.8447 238° Southwest 417 480 30,400 -2,760 Descending Los Angeles Center
12:38 34.1678 -116.9892 239° Southwest 419 482 26,400 -3,000 Descending Los Angeles Center
12:39 34.1000 -117.1333 240° Southwest 373 429 23,900 -2,280 Descending Southern California TRACON
12:40 34.0500 -117.2333 239° Southwest 362 417 21,500 -2,280 Descending Southern California TRACON
12:41 34.0333 -117.3500 260° West 345 397 19,400 -1,560 Descending Southern California TRACON
12:42 34.0333 -117.4667 270° West 302 348 18,400 -1,440 Descending Southern California TRACON
12:43 34.0167 -117.5667 259° West 332 382 16,500 -1,800 Descending Southern California TRACON
12:44 34.0167 -117.6667 270° West 276 318 14,900 -1,800 Descending Southern California TRACON
12:45 34.0000 -117.7667 259° West 283 326 13,000 -1,260 Descending Southern California TRACON
12:46 33.9833 -117.8667 259° West 291 335 12,400 -660 Descending Southern California TRACON
12:47 33.9833 -117.9500 270° West 296 341 11,700 -660 Descending Southern California TRACON
12:48 33.9667 -118.0500 259° West 294 338 11,100 -600 Descending Southern California TRACON
12:49 33.9667 -118.1500 270° West 288 331 10,500 -660 Descending Southern California TRACON
12:50 33.9500 -118.2500 259° West 284 327 9,800 -660 Descending Southern California TRACON
12:50 33.9506 -118.2553 277° West 290 334 9,700 -720 Descending Los Angeles Center
12:51 33.9086 -118.3503 242° Southwest 294 338 8,900 -840 Descending Los Angeles Center
12:52 33.8531 -118.4161 225° Southwest 286 329 8,000 -1,260 Descending Los Angeles Center
12:53 33.8419 -118.5192 263° West 279 321 6,400 -1,800 Descending Los Angeles Center
12:54 33.8336 -118.6094 264° West 272 313 4,400 -2,040 Descending Los Angeles Center
12:55 33.8256 -118.7022 264° West 263 303 2,200 -1,200 Descending Los Angeles Center
12:56 33.8531 -118.7567 301° West 215 247 2,000 -120 Descending Los Angeles Center
12:58 33.8944 -118.7269 31° Northeast 183 211 2,000  Level Los Angeles Center
12:59 33.9089 -118.6653 74° East 177 204 2,000  Level Los Angeles Center
13:00 33.9150 -118.6061 83° East 178 205 2,000  Level Los Angeles Center
13:01 33.9217 -118.5417 83° East 179 206 2,000 -480 Level Los Angeles Center
13:03 33.9311 -118.4447 83° East 146 168 600 -720 Descending Los Angeles Center